RJTYRJSF

Guest
Details From RJTY - YOKOTA AB
To RJSF - Fukushima
Flight Number -
Tags generated
Created
Modified
Stats Distance 103 nm / 191 km
Max Altitude 11,100 ft / 3,383 m
Waypoints 3
Social Downloads 2
Likes 0
Share VATSIM

Download

Looking for another format? Having issues loading an existing format? Contact us
Advertisement - Login to hide

Notes

Basic altitude profile: - Ascent Rate: 2500ft/min - Ascent Speed: 250kts - Cruise Altitude: 35000ft - Cruise Speed: 420kts - Descent Rate: 1500ft/min - Descent Speed: 250kts Options: - Use NATs: yes - Use PACOTS: yes - Use low airways: yes - Use high airways: no

Route

RJTY JD RJSF

ID Type Via Altitude Latitude Longitude Leg Dist Tot Dist Heading (true) Name
O RJTY APT - 0 ft / 0 m 35.74849˚ 139.34848˚ - 0 nm - YOKOTA AB
JD NDB - 11,100 ft / 3,383 m 36.48982˚ 139.86339˚ 51 nm 51 nm 29° / 29° NIKKO NDB
O RJSF APT - 0 ft / 0 m 37.22743˚ 140.42797˚ 51 nm 102 nm 31° / 32° Fukushima

Altitude Profile

Advertisement - Login to hide

RJTY

Details ICAO RJTY (OKO)
Name YOKOTA AB
Region Japan
Timezone Asia/Tokyo (UTC+9.0)
Stats Elevation 463 ft / 141 m (AMSL)
Location 35.748493° 139.348482°
Runways 1
Magnetic Variation 7.587° W

METAR

RJTY 242156Z AUTO 00000KT 10SM CLR 25/16 A2988 RMK AO2 SLP116 T02480160 FZRANO $

Decode

TAF

TAF TAF RJTY 242100Z 2421/2603 VRB06KT 9999 FEW250 QNH2985INS BECMG 2502/2503 15010G15KT 9999 FEW060 SCT250 QNH2988INS BECMG 2512/2514 VRB06KT 9999 SCT016 BKN080 QNH2998INS TEMPO 2516/2521 8000 BR BKN016 TX32/2506Z TN17/2518Z

Decode

Departure Runways

ID Width Length Bearing (true) Bearing (mag) Surface Threshold Offset Overrun Length
18 200 ft / 61 m 11,028 ft / 3,361 m 170.33° 177.92° Concrete 0 ft / 0 m 1,000 ft / 305 m
36 200 ft / 61 m 11,028 ft / 3,361 m 350.34° 357.93° Concrete 0 ft / 0 m 1,000 ft / 305 m

RJSF

Details ICAO RJSF (FKS)
Name Fukushima
Region Japan
Timezone Asia/Tokyo (UTC+9.0)
Stats Elevation 1,220 ft / 372 m (AMSL)
Location 37.227429° 140.427974°
Runways 1
Magnetic Variation 7.897° W

METAR

RJSF 242200Z 01006KT 9999 FEW050 22/22 Q1012

Decode

TAF

TAF RJSF 241705Z 2418/2600 14003KT 9999 FEW020 BECMG 2421/2423 34010KT BECMG 2509/2512 14004KT

Decode

Destination Runways

ID Width Length Bearing (true) Bearing (mag) Surface Threshold Offset Overrun Length
01 197 ft / 60 m 8,219 ft / 2,505 m 2.19° 10.09° Asphalt 0 ft / 0 m 197 ft / 60 m
19 197 ft / 60 m 8,219 ft / 2,505 m 182.19° 190.09° Asphalt 0 ft / 0 m 197 ft / 60 m

Approach Navaids

Runway Type Ident Frequency Range Bearing (true) Bearing (mag) Slope Elevation
01 Localiser IFK 110.50 MHz 18 nm / 33 km 2.19° 10.09° - 1,220 ft / 372 m (AMSL)
01 Glidescope IFK 110.50 MHz 10 nm / 19 km 2.19° 10.09° 3.00° 1,220 ft / 372 m (AMSL)
01 DME IFK 110.50 MHz 18 nm / 33 km - - - 1,223 ft / 373 m (AMSL)